Theta_e
321 327 327 323 326 328 330 333 334 330 329 329 329 330 332 331 333 345 342 339 351 348 338 342 342 341 344 348 348 345 341 340 341 341 341 340 336 337 339 339 339 336 334 332 327 325 322 320 317
321 327 326 325 326 329 331 332 333 331 328 327 327 328 328 333 336 339 344 341 351 348 336 343 342 338 339 344 348 346 343 342 342 343 342 340 336 336 334 333 333 331 329 323 321 319 317 314 312
325 328 326 328 327 329 331 331 329 327 326 326 327 327 328 335 335 336 339 343 351 350 341 346 340 335 336 341 348 348 344 345 344 344 343 339 334 334 332 331 330 327 323 320 317 315 314 314 315
325 328 328 327 328 330 329 330 328 327 326 326 326 327 329 332 333 336 340 343 345 351 348 348 339 336 335 336 346 348 346 346 346 345 344 338 334 332 330 329 328 323 320 318 316 314 315 317 318
324 327 330 330 328 327 328 329 326 327 327 326 326 326 331 332 331 334 342 343 344 348 348 349 338 337 334 334 342 348 348 348 348 346 345 339 335 329 327 327 326 322 318 317 315 315 316 318 320
325 328 330 330 330 329 328 327 326 325 327 327 326 326 329 332 330 331 342 344 343 345 348 348 336 339 334 333 337 345 349 348 349 349 347 342 338 331 328 326 324 320 317 317 317 316 317 318 320
324 328 330 329 329 329 329 328 325 325 325 328 329 326 330 331 329 330 340 343 345 344 349 349 339 339 338 336 335 342 348 349 350 350 349 343 339 334 330 326 323 319 317 318 317 317 318 318 320
324 327 327 328 330 329 328 327 327 324 324 327 329 329 331 330 328 329 334 343 344 342 355 355 344 342 344 339 338 342 346 348 350 350 349 344 339 336 332 326 324 321 317 317 319 318 320 321 321
321 325 327 326 327 328 328 328 328 327 325 327 329 329 329 329 328 329 330 341 342 341 355 354 348 345 349 347 343 340 345 347 349 350 348 343 339 335 332 327 328 324 320 319 319 321 320 322 322
321 324 324 324 325 326 327 327 328 328 328 327 329 329 328 328 328 328 328 332 342 340 345 352 346 347 347 345 347 340 344 346 348 346 343 338 336 340 338 337 330 331 332 324 321 321 321 322 321
320 322 322 322 323 323 324 326 327 329 330 329 328 329 329 328 327 328 328 330 333 341 342 349 345 346 345 343 345 343 346 344 343 342 341 338 339 339 341 340 340 338 335 332 329 325 322 322 329
320 320 321 322 322 322 323 324 324 326 328 329 328 328 328 328 328 326 326 326 332 339 340 348 346 345 344 343 345 347 344 345 344 343 342 346 339 340 342 342 342 343 343 339 334 337 338 337 336
319 320 321 322 322 322 322 322 323 323 326 328 329 327 327 327 329 324 323 324 330 332 337 342 348 347 345 345 344 346 342 343 343 345 342 344 349 343 342 345 343 347 344 342 340 339 339 339 338
317 318 319 320 320 320 321 321 321 323 325 326 328 329 326 327 327 325 323 324 331 333 334 339 346 348 350 347 350 351 344 341 343 344 345 346 346 347 344 345 346 342 344 342 341 341 339 339 338
317 317 317 317 318 318 319 319 319 321 323 324 325 327 326 326 324 328 323 324 328 330 331 332 341 342 345 346 345 348 349 346 343 344 346 346 345 346 348 347 346 343 341 339 338 338 338 338 339
316 317 317 317 317 318 318 318 319 320 321 321 321 322 324 325 325 327 323 324 327 329 329 331 338 343 340 342 342 348 348 345 345 345 346 348 347 347 348 348 345 343 342 340 339 338 337 337 337
316 315 317 317 317 317 318 318 318 319 320 321 322 322 322 323 325 326 325 324 324 327 329 332 333 343 342 343 339 336 347 347 345 343 344 346 350 348 344 349 345 344 342 341 340 339 337 338 340
316 316 316 317 318 318 318 318 318 319 319 321 321 321 322 322 323 326 325 324 324 327 329 329 332 336 346 343 344 342 340 342 342 341 340 342 343 349 349 347 349 345 342 341 339 337 335 340 339
317 317 316 317 318 319 318 318 318 319 319 319 320 322 323 323 323 325 323 322 322 325 328 329 331 325 340 350 348 347 346 343 343 344 339 339 340 346 347 348 342 344 341 340 339 336 334 337 337
316 317 317 317 317 318 318 317 318 318 319 320 321 322 322 322 323 326 325 322 322 324 327 326 331 330 329 344 347 344 343 347 345 343 340 338 340 337 339 342 342 338 338 340 337 341 341 340 341
315 315 316 316 316 317 317 317 317 318 318 319 320 322 322 322 322 324 325 323 322 324 324 324 327 330 330 331 339 344 344 346 347 349 346 343 338 338 340 339 338 341 341 340 341 342 341 341 347
315 315 315 316 316 316 317 319 320 320 321 320 320 320 320 320 322 323 323 322 322 321 322 324 326 325 326 323 330 332 334 337 338 336 342 351 348 342 337 339 340 341 339 344 342 341 340 344 347
315 315 315 316 317 318 317 317 317 319 318 318 319 318 320 319 320 321 320 320 320 319 320 322 325 327 327 329 323 326 332 332 330 336 337 340 345 347 339 341 341 337 339 338 340 342 343 346 348
315 315 315 315 316 318 317 318 319 318 319 319 320 318 318 318 320 320 321 319 319 318 318 321 323 325 327 328 328 320 326 329 331 332 336 340 344 346 347 344 342 340 341 342 342 342 344 347 347
315 315 315 317 318 320 318 320 321 319 319 318 319 318 319 318 318 321 321 320 320 319 320 320 321 324 325 326 327 328 328 329 330 329 327 330 332 336 345 344 341 340 341 341 340 334 342 350 346
319 318 317 318 319 317 319 326 321 321 317 317 318 319 318 316 317 319 320 320 319 319 320 319 322 323 324 325 326 327 326 328 329 329 330 329 329 331 332 341 348 345 344 342 342 348 352 354 352
320 320 317 321 320 319 319 321 320 320 319 316 316 315 315 317 320 318 318 318 319 319 320 320 321 321 322 323 326 327 327 328 328 327 327 329 332 334 335 333 332 348 355 355 354 353 356 356 357
320 319 323 323 326 323 319 317 319 319 321 319 316 315 317 320 318 318 318 319 318 318 319 319 319 321 321 321 321 324 328 330 330 330 331 331 330 330 332 334 338 346 355 356 356 358 357 357 357
318 321 318 319 323 322 321 319 319 319 319 319 316 316 317 319 317 317 318 318 318 318 317 319 321 321 321 321 321 321 322 324 327 329 332 334 333 335 337 338 338 337 345 350 355 356 356 356 356
316 316 320 324 324 322 323 322 319 318 317 320 316 316 317 317 317 318 318 318 318 318 318 318 318 318 317 319 320 320 322 321 322 325 327 331 335 336 339 338 341 342 345 347 349 353 357 356 355
Wind_Speed
14 19 14 12 6 7 14 19 22 5 7 5 13 11 5 14 13 7 21 12 25 26 30 30 28 26 24 22 21 21 21 21 20 18 17 16 16 15 14 13 12 10 9 7 7 5 4 3 3
13 15 14 6 8 11 13 18 22 1 14 13 10 6 9 8 16 11 17 12 22 24 28 28 29 27 24 22 22 22 22 21 20 18 17 16 15 15 14 13 11 9 9 8 7 5 4 3 3
13 13 5 5 11 14 17 14 13 16 11 5 3 3 6 10 15 6 12 6 20 23 23 24 29 28 25 22 22 22 23 21 20 18 17 16 15 14 13 12 11 9 8 8 7 6 5 4 2
16 9 6 9 16 18 22 19 6 10 4 4 5 2 4 16 6 9 8 3 5 20 22 24 30 29 27 24 23 23 22 22 20 19 18 17 15 15 13 12 11 9 8 7 7 6 5 4 3
15 7 11 16 18 19 20 20 5 10 6 4 6 11 5 10 10 11 8 5 10 22 23 24 31 30 28 27 24 24 23 21 20 19 17 16 16 15 14 12 10 8 7 7 6 5 5 4 3
10 11 14 16 20 19 15 12 5 12 19 10 8 6 6 14 13 10 8 7 11 22 28 25 30 30 28 28 27 25 24 22 20 18 17 16 15 14 13 12 11 10 8 7 6 5 6 6 5
14 12 19 22 21 23 20 16 7 10 16 13 16 17 2 16 11 9 3 2 8 23 29 25 30 31 28 26 26 26 25 23 20 18 17 16 16 15 14 12 11 10 8 8 8 7 7 7 8
13 13 24 21 19 23 21 12 12 8 11 13 5 6 3 9 11 12 9 4 7 23 27 22 28 28 26 26 25 24 25 23 21 19 18 17 16 16 14 13 13 11 11 10 9 8 9 10 10
20 15 17 25 25 22 20 18 15 12 10 11 8 15 6 7 10 13 8 5 5 17 30 23 23 26 22 21 23 24 22 23 21 19 18 18 17 17 15 15 13 13 12 11 11 10 10 12 13
19 16 26 23 23 22 23 22 17 17 12 11 14 20 15 4 5 11 13 4 3 13 27 27 26 25 23 22 20 24 21 23 23 20 18 19 16 14 13 12 14 14 13 14 13 13 13 15 15
23 24 22 24 22 23 26 26 22 17 18 16 16 16 17 5 11 15 13 8 7 11 13 29 29 27 24 23 24 22 19 21 21 21 20 17 16 17 17 15 18 16 16 17 14 16 16 19 16
25 26 26 24 24 25 24 23 25 25 16 19 20 16 15 14 2 8 17 19 6 4 11 20 29 30 25 22 25 20 23 22 21 23 22 19 20 18 18 16 16 14 12 13 15 17 15 16 15
24 25 24 25 25 24 23 26 25 25 23 12 16 15 13 10 3 2 7 15 3 2 7 11 24 27 27 25 21 23 26 24 23 22 25 24 18 21 20 16 17 17 12 17 14 15 22 23 20
20 21 25 23 24 22 23 22 24 25 22 19 17 16 11 12 12 8 4 5 7 3 4 6 12 22 19 18 13 8 25 25 24 23 26 27 25 21 19 21 18 20 16 16 19 20 21 23 22
18 21 19 22 20 21 23 28 25 25 24 21 22 17 16 16 18 18 13 4 6 4 4 4 1 17 23 25 26 17 7 16 22 22 23 28 28 26 22 21 20 21 20 20 20 17 17 20 17
17 17 18 22 23 23 22 25 24 23 21 23 23 20 19 15 17 20 20 14 8 5 7 8 9 12 20 24 27 21 8 14 13 17 17 23 30 27 22 23 22 22 23 21 21 21 25 25 23
15 17 21 24 23 21 24 27 23 21 20 20 22 17 23 11 13 18 22 21 13 9 8 9 15 8 25 26 21 18 23 16 17 23 17 23 24 28 30 24 26 21 25 20 20 23 26 23 20
18 19 20 22 19 20 25 23 17 16 19 19 15 13 12 10 11 15 15 21 14 9 7 6 11 17 17 28 22 22 21 26 24 25 25 23 29 28 28 29 21 24 24 22 25 24 23 23 18
20 21 24 21 20 17 14 17 18 19 22 19 12 12 12 12 12 16 18 19 12 7 6 7 9 12 18 21 24 20 18 16 28 25 33 26 23 25 29 30 29 25 21 24 24 25 25 29 26
21 19 20 20 21 19 19 18 14 18 21 19 17 18 16 14 13 10 9 14 13 9 5 6 5 8 12 21 16 17 21 23 26 28 33 28 25 31 33 33 24 22 25 25 23 22 24 20 24
18 18 20 22 21 21 21 20 17 20 21 21 19 14 14 14 16 13 13 12 12 10 12 9 8 6 15 7 11 12 19 17 23 14 17 22 31 37 34 33 22 26 19 21 25 28 28 25 20
20 19 21 20 18 15 17 15 19 22 25 24 21 16 14 17 13 11 7 4 9 10 11 10 4 4 6 13 7 11 13 16 24 31 23 16 25 39 30 39 33 27 23 27 32 32 32 23 22
21 19 15 20 17 16 20 14 18 20 20 13 13 12 12 7 7 9 8 8 10 7 7 6 6 6 8 10 16 8 8 12 12 15 25 22 28 29 40 40 40 25 33 37 39 37 29 23 23
17 14 14 17 14 15 22 17 18 18 21 19 18 15 12 11 7 5 14 15 9 13 11 5 6 5 4 6 6 12 14 14 13 12 11 18 21 28 34 37 35 33 35 38 40 38 19 18 25
18 15 13 14 12 16 23 11 19 20 21 13 17 14 13 9 8 13 11 12 20 16 16 13 12 7 5 7 10 11 10 12 11 16 19 20 17 20 29 37 39 38 41 43 43 38 25 28 36
17 17 13 18 13 15 10 6 11 24 10 2 12 17 14 12 10 8 9 3 4 9 13 9 8 8 7 7 9 9 10 10 13 17 20 22 19 23 24 13 30 36 36 38 41 32 27 29 36
11 15 19 15 17 14 16 12 15 21 18 12 10 4 5 4 7 3 1 6 6 4 3 4 8 9 9 9 10 9 11 14 18 20 21 21 19 20 24 27 26 27 35 32 32 32 30 29 30
8 9 8 5 4 12 13 16 11 3 12 19 12 9 9 10 9 6 8 8 8 9 9 12 13 16 18 9 12 11 14 15 18 18 18 20 22 24 26 29 27 20 27 29 29 28 30 30 29
9 14 20 11 9 7 10 11 5 4 5 18 11 10 10 11 6 10 8 9 10 10 13 11 13 12 14 16 14 12 13 13 13 14 14 19 22 23 26 27 28 28 29 28 31 33 30 29 28
19 17 3 4 8 8 8 11 13 3 4 5 6 4 4 6 12 10 7 8 10 10 11 9 10 9 15 15 13 15 13 13 15 17 19 20 20 22 25 27 28 27 29 32 34 32 30 28 28
Wind_Direction
317 314 298 277 241 227 246 251 264 292 349 345 21 1 260 12 51 64 53 50 118 137 155 159 158 159 165 173 173 167 165 162 161 157 151 149 147 149 149 144 141 138 136 135 132 136 124 115 104
328 311 297 274 239 252 239 236 260 32 80 37 12 341 326 72 45 72 65 28 130 144 160 164 165 161 167 177 178 174 171 168 167 161 159 156 153 156 154 153 151 146 148 149 145 142 131 116 103
310 282 292 252 238 247 260 4 359 69 74 77 346 226 304 66 54 32 25 354 135 141 165 172 170 164 169 178 183 181 178 175 173 168 167 163 163 162 160 159 157 158 161 160 157 156 151 136 123
289 264 236 253 258 243 256 284 337 337 57 5 281 355 98 64 50 20 358 300 186 151 161 184 177 172 171 177 187 187 186 182 180 177 174 170 171 168 167 170 170 171 171 172 174 168 169 171 168
262 265 262 252 241 261 285 297 38 299 300 113 215 244 135 103 52 10 9 297 215 164 163 186 184 178 175 177 187 190 190 191 188 185 182 178 179 176 175 177 178 182 186 189 189 186 198 207 210
262 244 252 254 253 244 251 293 318 282 286 278 269 281 274 114 55 3 17 308 212 169 164 185 188 184 181 181 186 192 194 195 195 194 191 188 190 186 183 185 190 193 203 206 216 215 220 228 239
245 257 250 253 260 267 223 231 216 241 271 272 304 248 120 56 32 345 59 14 265 164 162 176 184 189 187 188 189 192 197 199 199 200 200 198 199 197 194 195 204 209 215 223 230 236 242 244 252
249 246 257 260 263 255 265 175 210 191 250 249 289 291 31 54 1 331 7 56 224 169 150 166 178 188 188 192 193 198 199 202 205 206 207 207 207 208 205 206 212 219 228 233 242 246 257 260 262
237 248 252 250 252 262 270 260 176 185 211 272 227 268 279 53 352 335 353 88 218 185 149 154 168 180 188 187 195 196 203 204 207 213 213 211 212 215 215 216 221 230 239 243 246 253 257 263 265
231 240 241 252 265 266 263 260 252 172 201 237 229 250 286 251 351 334 324 355 169 213 162 159 167 178 187 185 197 197 200 204 206 210 217 212 207 219 220 231 230 235 244 249 252 254 258 261 263
233 240 246 249 253 261 270 275 270 186 202 204 237 248 246 326 349 334 327 17 335 276 185 158 166 178 186 191 192 201 194 203 208 204 208 217 205 208 222 223 230 238 245 248 254 255 257 256 256
245 241 249 253 264 273 277 277 270 273 247 179 200 224 261 303 135 339 342 321 103 300 292 155 167 177 182 199 184 189 190 197 199 206 203 205 205 214 214 215 225 235 229 242 231 246 258 252 252
245 252 256 253 251 264 275 274 280 279 270 244 177 199 223 260 250 232 334 341 75 42 323 292 168 174 182 198 189 189 191 198 196 203 204 204 212 210 218 219 218 223 211 231 230 225 241 238 243
265 256 259 256 262 267 261 260 272 266 272 267 262 216 195 243 248 210 221 5 56 79 329 298 168 169 171 206 233 195 194 195 198 201 202 206 207 217 216 218 222 226 232 226 228 225 231 234 240
269 273 274 264 255 261 257 258 243 260 265 265 267 259 205 214 247 220 188 179 138 138 255 274 182 195 198 201 229 235 210 194 197 202 206 212 211 211 219 219 225 226 232 233 238 240 238 241 242
269 263 260 251 254 246 248 259 245 245 251 255 256 258 264 218 231 227 176 167 153 148 205 211 195 200 215 216 214 223 225 224 214 214 211 217 213 210 217 219 223 230 231 233 242 246 253 256 249
244 255 253 254 244 245 233 244 249 254 259 249 240 259 240 236 254 239 173 161 151 169 172 186 188 176 211 220 197 207 223 221 228 239 221 218 213 217 222 224 223 234 236 231 232 234 251 259 248
261 250 238 244 252 252 239 245 241 254 253 253 235 253 268 252 260 259 180 140 146 148 171 186 168 193 200 210 195 191 202 224 225 234 240 231 226 215 220 221 223 236 237 233 234 240 244 256 259
265 269 283 291 295 306 244 236 250 252 256 258 225 227 242 238 239 254 172 144 142 177 189 213 174 158 194 194 193 192 198 221 238 243 234 237 228 212 217 222 225 228 241 238 239 254 252 250 254
279 280 281 287 278 280 276 263 258 263 269 267 221 219 222 234 228 239 167 147 154 185 219 245 246 172 162 199 213 217 211 207 227 239 228 231 242 233 224 227 220 239 236 237 247 247 246 269 253
268 266 273 276 279 269 255 259 258 266 264 265 257 230 227 221 212 216 221 166 167 180 203 213 213 245 145 182 186 230 231 224 221 240 248 240 237 236 222 222 230 222 236 240 239 235 240 241 260
272 272 262 261 262 266 272 268 253 251 232 239 237 241 239 232 227 193 178 222 146 228 211 198 219 249 283 178 202 214 219 218 242 243 254 259 241 240 235 234 219 217 239 236 230 232 241 236 246
274 268 294 301 287 284 257 264 268 277 276 250 215 225 233 229 197 198 173 205 217 209 229 218 187 206 208 230 180 210 257 260 239 257 221 263 250 245 226 227 221 238 230 226 233 240 225 217 243
264 278 281 284 284 269 263 259 267 265 260 255 204 195 197 196 167 211 179 183 185 219 220 208 243 225 223 258 245 189 234 254 267 254 278 234 244 251 237 234 240 239 232 231 230 246 224 217 242
248 252 257 249 245 258 261 316 280 258 238 291 150 167 160 176 209 174 191 191 188 200 194 202 209 213 235 238 236 232 218 239 253 267 263 269 267 255 251 245 245 235 234 234 245 254 251 235 229
273 295 243 254 258 259 245 261 255 328 197 176 164 167 178 181 205 175 214 178 207 196 198 199 194 199 233 253 259 258 261 265 268 272 270 262 261 265 276 259 242 240 236 240 243 245 243 237 230
264 252 277 276 285 277 268 244 280 279 301 185 175 165 177 178 201 148 187 231 216 234 245 218 201 264 265 235 227 246 256 245 247 255 263 279 275 273 274 279 281 248 235 234 231 235 238 239 234
199 275 287 218 241 246 261 249 235 269 265 275 185 200 202 185 189 197 239 253 251 233 215 210 229 232 234 257 276 258 241 250 252 256 259 266 274 270 271 272 274 254 234 234 232 235 234 235 228
217 223 249 301 238 259 283 283 58 327 177 230 213 203 186 211 197 228 255 278 277 248 235 236 220 237 239 228 235 257 275 271 267 270 271 266 266 270 271 267 271 267 249 239 238 236 232 227 224
302 276 290 184 296 287 258 254 286 212 224 331 259 246 228 227 235 233 219 240 275 273 279 269 257 262 282 258 247 253 252 265 275 275 272 268 270 264 268 263 259 256 250 235 235 236 229 221 213